BREEZE-M DEB, 38559

Orbit data source: Space-Track

BREEZE-M DEB, 38559 is space debris in HEO originally from a launch on Tue, 28 Feb 2006 UTC launched from the Tyuratam Missile And Space Complex (TTMTR). Debris objects in space refer to the collection of defunct objects orbiting the Earth. Examples of debris include non-operational satellites, rocket bodies, and fragments generated from explosions, collisions, or faulty payload assembly.

Loading next visibility...
Identifier
38559, 2006-006CZ
Orbit
HEO
Country
Flag of CISCIS
Related business
Manufacturer
Khrunichev
Mission
Spacecraft
Bus & Motor
Unknown
Mass
Unknown
Launch date (UTC)
2006-02-28 (20 years ago)
Launch vehicle
Unknown
Launch site
Tyuratam Missile And Space Complex (TTMTR)
Object type
Payload
Rocket body
Debris
Shape & HBR
Unknown shape, 0.1 m
Radar Cross Section
Medium (>0.1 m² and <1 m²)

Expand to show TLE details & history
Last TLE update: 13 hours ago

TLE from 13 hours ago
0 BREEZE-M DEB
1 38559U 06006CZ  26162.79169922  .00001427  00000-0  35804-2 0  9990
2 38559  52.1407 334.4687 4995432 149.4757 348.2497  5.32993210  9357
Epoch: 2026-06-11T19:00Z
TLE epoch observation values (Epoch: 2026-06-11T19:00:02.812Z)
Latitude
47.61681°
Longitude
-88.6069°
Altitude
1,094.856 km
Speed
8.834 km/s
True Right ascension
06h 26m 08s
True Declination
47° 27' 12"
Sunlit
Object was in daylight at epoch
Visualization orbit readout
Latitude
Unknown
Longitude
Unknown
Altitude
Unknown
Speed
Unknown
Apparent Right ascension
Unknown
Apparent Declination
Unknown
Sunlit
N/A
Visualization observer readout
Local Sidereal Time
18:21:06
Azimuth
Unknown
Elevation
Unknown
Doppler factor
Unknown
Orbital elements
Apogee altitude
14,381.669 km
Perigee altitude
550.23 km
Semi-major axis
13,844.086 km
Eccentricity
0.49954
Inclination
52.1407°
RAAN
334.4687°
Arg. of periapsis
149.4757°
True anomaly
321.39501°
Mean anomaly
348.2497°
Eccentric anomaly
337.12279°
Mean motion
1.33244 °/min
Orbital period
270.18 mins
BSTAR
0.0035804
Loading maneuver chart data...
Computing Atmospheric mass density...
Loading historical data...
Loading historical data...
Loading historical data...
Loading historical data...
Loading historical data...
Loading historical data...
Loading historical data...

Documentation

Showing up to 5 results
|